Date String (YYYY-MM-DD hh:mm:ss) UTC,Instrument flags,Ambient pressure (hPa),Sample flow (lpm),Bypass flow (lpm),Sample temperature (°C),Ambient temperature (°C),ASC tube jacket temperature (°C),LED temperature (°C),Box temperature (°C),Sample RH (%),Span deviation,Mass concentration (μg/m³),Mass concentration (μg/m³),Mass concentration (μg/m³)
DateTimeUTC,F1_M11,P_M11,Q1_M11,Q2_M11,T1_M11,T2_M11,T3_M11,T4_M11,T5_M11,U1_M11,ZSPAN_M11,X0_M11,X2_M11,X1_M11
2021-09-13 22:00:00,,0825.4,5.00,0.00,29.3,26.2,00.0,38.4,30.8,24.8,0000.0,0016.37,0004.44,0003.12
2021-09-13 22:01:00,,0825.4,5.00,0.00,29.2,26.7,00.0,38.4,30.9,24.5,0000.0,0016.36,0004.45,0003.11
2021-09-13 22:02:00,,0825.4,5.00,0.00,29.3,27.1,00.0,38.4,31.0,24.4,0000.0,0016.65,0004.48,0003.09
2021-09-13 22:03:00,,0825.4,5.00,0.00,29.3,27.5,00.0,38.4,31.1,24.0,0000.0,0017.02,0004.47,0003.07
2021-09-13 22:04:00,,0825.4,5.00,0.00,29.3,27.9,00.0,38.4,31.2,23.8,0000.0,0017.05,0004.46,0003.04
2021-09-13 22:05:00,,0825.4,4.99,0.00,29.4,28.2,00.0,38.4,31.3,24.1,0000.0,0015.61,0004.45,0003.03
2021-09-13 22:06:00,,0825.5,5.01,0.00,29.4,28.4,00.0,38.4,31.3,24.0,0000.0,0014.96,0004.41,0003.02
2021-09-13 22:07:00,,0825.4,5.01,0.00,29.5,28.6,00.0,38.4,31.4,24.1,0000.0,0014.37,0004.38,0003.04
2021-09-13 22:08:00,,0825.4,4.99,0.00,29.5,28.7,00.0,38.4,31.5,24.4,0000.0,0015.05,0004.30,0003.04
2021-09-13 22:09:00,,0825.4,5.01,0.00,29.6,27.8,00.0,38.5,31.2,23.9,0000.0,0014.73,0004.35,0003.05
2021-09-13 22:10:00,,0825.4,4.98,0.00,29.4,26.1,00.0,38.4,30.8,23.9,0000.0,0014.86,0004.37,0003.05
2021-09-13 22:11:00,,0825.4,5.01,0.00,29.3,25.8,00.0,38.4,30.7,23.8,0000.0,0015.41,0004.39,0003.07
2021-09-13 22:12:00,,0825.5,5.02,0.00,29.2,26.3,00.0,38.4,30.8,24.3,0000.0,0016.29,0004.42,0003.09
2021-09-13 22:13:00,,0825.5,5.00,0.00,29.2,26.7,00.0,38.4,30.9,24.6,0000.0,0016.68,0004.44,0003.10
2021-09-13 22:14:00,,0825.5,4.99,0.00,29.2,27.2,00.0,38.3,31.0,25.2,0000.0,0016.87,0004.45,0003.11
2021-09-13 22:15:00,,0825.4,5.00,0.00,29.3,27.6,00.0,38.3,31.1,24.9,0000.0,0016.60,0004.42,0003.11
2021-09-13 22:16:00,,0825.4,5.01,0.00,29.3,27.9,00.0,38.3,31.2,24.3,0000.0,0016.54,0004.35,0003.12
2021-09-13 22:17:00,,0825.4,5.00,0.00,29.3,28.2,00.0,38.4,31.2,24.3,0000.0,0016.59,0004.41,0003.12
2021-09-13 22:18:00,,0825.4,4.99,0.00,29.4,28.4,00.0,38.4,31.3,23.8,0000.0,0016.45,0004.40,0003.11
2021-09-13 22:19:00,,0825.4,5.00,0.00,29.5,28.6,00.0,38.4,31.4,24.1,0000.0,0015.67,0004.40,0003.10
2021-09-13 22:20:00,,0825.4,5.01,0.00,29.5,28.7,00.0,38.4,31.4,24.4,0000.0,0015.71,0004.36,0003.09
2021-09-13 22:21:00,,0825.4,4.99,0.00,29.6,28.2,00.0,38.4,31.3,24.3,0000.0,0014.57,0004.36,0003.10
2021-09-13 22:22:00,,0825.3,5.01,0.00,29.4,26.4,00.0,38.4,30.8,24.7,0000.0,0013.81,0004.41,0003.11
2021-09-13 22:23:00,,0825.4,5.00,0.00,29.3,25.7,00.0,38.4,30.6,24.6,0000.0,0012.73,0004.41,0003.11
2021-09-13 22:24:00,,0825.3,5.01,0.00,29.2,26.1,00.0,38.4,30.7,24.7,0000.0,0012.26,0004.40,0003.12
2021-09-13 22:25:00,,0825.3,5.00,0.00,29.2,26.6,00.0,38.4,30.8,24.8,0000.0,0012.53,0004.38,0003.12
2021-09-13 22:26:00,,0825.3,4.99,0.00,29.2,27.0,00.0,38.3,30.9,24.8,0000.0,0012.22,0004.39,0003.13
2021-09-13 22:27:00,,0825.4,5.01,0.00,29.2,27.4,00.0,38.3,31.0,25.0,0000.0,0011.90,0004.37,0003.13
2021-09-13 22:28:00,,0825.3,4.99,0.00,29.3,27.8,00.0,38.3,31.1,25.3,0000.0,0012.28,0004.27,0003.13
2021-09-13 22:29:00,,0825.3,5.00,0.00,29.3,28.0,00.0,38.3,31.2,25.2,0000.0,0012.15,0004.27,0003.13
2021-09-13 22:30:00,,0825.4,4.99,0.00,29.4,28.3,00.0,38.3,31.3,25.2,0000.0,0012.27,0004.34,0003.15
2021-09-13 22:31:00,,0825.4,5.00,0.00,29.4,28.5,00.0,38.4,31.3,25.1,0000.0,0012.56,0004.42,0003.16
2021-09-13 22:32:00,,0825.4,5.00,0.00,29.5,28.6,00.0,38.4,31.4,24.9,0000.0,0012.69,0004.39,0003.16
2021-09-13 22:33:00,,0825.4,4.99,0.00,29.5,28.5,00.0,38.4,31.4,24.8,0000.0,0013.23,0004.32,0003.16
2021-09-13 22:34:00,,0825.4,5.00,0.00,29.4,26.8,00.0,38.4,30.9,24.9,0000.0,0014.29,0004.36,0003.17
2021-09-13 22:35:00,,0825.4,4.99,0.00,29.3,25.7,00.0,38.4,30.5,25.3,0000.0,0015.28,0004.42,0003.17
2021-09-13 22:36:00,,0825.5,5.00,0.00,29.2,26.0,00.0,38.4,30.6,25.3,0000.0,0015.81,0004.49,0003.18
2021-09-13 22:37:00,,0825.5,5.01,0.00,29.1,26.4,00.0,38.3,30.7,25.2,0000.0,0016.81,0004.53,0003.19
2021-09-13 22:38:00,,0825.4,5.00,0.00,29.1,26.9,00.0,38.3,30.8,25.1,0000.0,0017.93,0004.61,0003.20
2021-09-13 22:39:00,,0825.5,4.98,0.00,29.2,27.3,00.0,38.3,30.9,25.3,0000.0,0018.37,0004.70,0003.21
2021-09-13 22:40:00,,0825.5,5.01,0.00,29.2,27.6,00.0,38.3,31.0,24.8,0000.0,0018.77,0004.73,0003.21
2021-09-13 22:41:00,,0825.4,5.00,0.00,29.3,27.9,00.0,38.3,31.1,24.3,0000.0,0018.47,0004.70,0003.22
2021-09-13 22:42:00,,0825.5,5.01,0.00,29.3,28.2,00.0,38.3,31.2,24.1,0000.0,0017.88,0004.65,0003.22
2021-09-13 22:43:00,,0825.6,5.01,0.00,29.4,28.4,00.0,38.3,31.3,24.2,0000.0,0018.60,0004.66,0003.21
2021-09-13 22:44:00,,0825.6,5.00,0.00,29.4,28.6,00.0,38.4,31.3,24.6,0000.0,0018.13,0004.69,0003.22
2021-09-13 22:45:00,,0825.6,4.99,0.00,29.5,28.7,00.0,38.4,31.4,24.5,0000.0,0017.76,0004.68,0003.22
2021-09-13 22:46:00,,0825.7,5.00,0.00,29.5,28.3,00.0,38.4,31.3,24.3,0000.0,0017.12,0004.60,0003.22
2021-09-13 22:47:00,,0825.6,4.99,0.00,29.4,26.6,00.0,38.4,30.9,24.2,0000.0,0016.03,0004.54,0003.22
2021-09-13 22:48:00,,0825.6,4.99,0.00,29.2,25.7,00.0,38.4,30.6,24.5,0000.0,0016.40,0004.51,0003.22
2021-09-13 22:49:00,,0825.7,5.01,0.00,29.2,26.1,00.0,38.4,30.7,24.5,0000.0,0016.74,0004.52,0003.22
2021-09-13 22:50:00,,0825.7,5.00,0.00,29.1,26.5,00.0,38.3,30.8,24.8,0000.0,0016.66,0004.56,0003.22
2021-09-13 22:51:00,,0825.7,5.00,0.00,29.1,27.0,00.0,38.3,30.9,25.0,0000.0,0018.65,0004.68,0003.23
2021-09-13 22:52:00,,0825.7,5.01,0.00,29.2,27.4,00.0,38.3,31.0,25.0,0000.0,0019.54,0004.72,0003.23
2021-09-13 22:53:00,,0825.7,5.00,0.00,29.2,27.7,00.0,38.3,31.1,24.7,0000.0,0020.54,0004.76,0003.24
2021-09-13 22:54:00,,0825.7,5.00,0.00,29.3,28.0,00.0,38.3,31.2,24.9,0000.0,0020.75,0004.81,0003.26
2021-09-13 22:55:00,,0825.7,4.99,0.00,29.3,28.3,00.0,38.3,31.2,24.5,0000.0,0021.70,0004.85,0003.27
2021-09-13 22:56:00,,0825.9,5.01,0.00,29.4,28.4,00.0,38.3,31.3,24.7,0000.0,0023.37,0004.86,0003.27
2021-09-13 22:57:00,,0825.7,4.99,0.00,29.4,28.6,00.0,38.4,31.4,24.5,0000.0,0024.13,0004.91,0003.28
2021-09-13 22:58:00,,0825.9,5.00,0.00,29.5,28.6,00.0,38.4,31.4,24.0,0000.0,0024.32,0004.93,0003.29
2021-09-13 22:59:00,,0825.7,5.00,0.00,29.4,27.0,00.0,38.4,31.0,24.2,0000.0,0024.35,0004.99,0003.29
